Stations météo

réclame
Mon MeteoGroup
Karlstad Flygplats, Suède (2418): Température de l'air & dewpoint: 12.09.2019 11:00:00 - 18.09.2019 11:00:00 (CEST)Karlstad Flygplats, Suède (2418): Vitesse du vent: 12.09.2019 11:00:00 - 18.09.2019 11:00:00 (CEST)Karlstad Flygplats, Suède (2418): Direction du vent: 12.09.2019 11:00:00 - 18.09.2019 11:00:00 (CEST)Karlstad Flygplats, Suède (2418): reduced air pressure: 12.09.2019 11:00:00 - 18.09.2019 11:00:00 (CEST)Karlstad Flygplats, Suède (2418): visibility: 12.09.2019 11:00:00 - 18.09.2019 11:00:00 (CEST)
Date & Time tt [°C] td [°C] ff [km/h] ff [knt] dd ppp [hPa] vv [km]
18.09.2019 11:00:00 10,5 3,7 18 10 NNW 1014,6 28
18.09.2019 10:00:00 9,3 4,1 22 12 NNW 1014,3 50
18.09.2019 09:00:00 7,6 4,2 11 6 NW 1013,6 45
18.09.2019 08:00:00 5,2 3,2 14 8 NW 1013,2 50
18.09.2019 07:00:00 4,0 2,5 14 8 WNW 1012,6 50
18.09.2019 06:00:00 4,7 2,7 11 6 WNW 1012,0 35
18.09.2019 05:00:00 4,7 2,7 11 6 WNW 1011,5 50
18.09.2019 04:00:00 5,2 2,9 11 6 WNW 1010,9 50
18.09.2019 03:00:00 6,0 3,2 14 8 NW 1010,2 50
18.09.2019 02:00:00 6,3 3,3 11 6 WNW 1010,0 50
18.09.2019 01:00:00 6,6 3,4 11 6 WNW 1009,7 50
18.09.2019 00:00:00 7,4 3,3 14 8 NW 1009,0 50
17.09.2019 23:00:00 7,1 3,0 11 6 WNW 1008,7 50
17.09.2019 22:00:00 7,5 3,2 11 6 NW 1008,1 50
17.09.2019 21:00:00 6,4 2,7 11 6 NW 1007,2 50
17.09.2019 20:00:00 8,2 2,9 11 6 NW 1006,4 50
17.09.2019 19:00:00 9,4 3,6 14 8 NW 1005,4 50
17.09.2019 18:00:00 11,5 4,7 14 8 NW 1004,6 50
17.09.2019 17:00:00 10,9 5,6 18 10 NW 1003,8 35
17.09.2019 16:00:00 8,8 6,4 14 8 NW 1003,4 45
17.09.2019 15:00:00 7,1 6,2 22 12 NW 1003,1 35
17.09.2019 14:00:00 6,3 4,9 14 8 N 1002,8 24
17.09.2019 13:00:00 8,0 4,6 25 14 N 1001,8 35
17.09.2019 12:00:00 8,4 4,4 18 10 NNW 1000,7 50
17.09.2019 11:00:00 8,5 4,1 18 10 NNW 1000,1 50
17.09.2019 10:00:00 6,9 3,9 11 6 NW 999,8 45
17.09.2019 09:00:00 6,3 4,0 11 6 NNW 999,5 50
17.09.2019 08:00:00 6,0 4,2 11 6 WNW 999,4 50
17.09.2019 07:00:00 5,4 4,2 0 0 N 999,5 50
17.09.2019 06:00:00 4,8 3,9 7 4 SW 999,8 50
17.09.2019 05:00:00 4,3 3,6 7 4 WSW 1000,2 50
17.09.2019 04:00:00 4,5 2,5 4 2 SSW 1001,0 50
17.09.2019 03:00:00 3,6 2,6 7 4 SW 1001,7 50
17.09.2019 02:00:00 2,7 1,2 11 6 SW 1002,4 50
17.09.2019 01:00:00 3,0 1,5 11 6 SW 1003,0 50
17.09.2019 00:00:00 3,2 1,9 11 6 SSW 1003,5 50
16.09.2019 23:00:00 3,9 1,6 11 6 SW 1004,0 50
16.09.2019 22:00:00 5,2 2,0 11 6 SW 1004,3 50
16.09.2019 21:00:00 6,9 2,4 11 6 SSW 1004,6 50
16.09.2019 20:00:00 7,4 3,4 11 6 SW 1004,8 50
16.09.2019 19:00:00 11,1 2,4 7 4 SW 1004,8 50
16.09.2019 18:00:00 13,2 4,6 7 4 WSW 1005,0 50
16.09.2019 17:00:00 12,6 4,3 0 0 N 1005,3 50
16.09.2019 16:00:00 13,5 4,4 4 2 N 1005,5 45
16.09.2019 15:00:00 13,1 2,6 11 6 N 1005,5 45
16.09.2019 14:00:00 13,0 2,8 18 10 NW 1005,3 50
16.09.2019 13:00:00 13,9 2,2 22 12 NW 1005,0 35
16.09.2019 12:00:00 13,0 1,3 25 14 WNW 1004,8 40
16.09.2019 11:00:00 11,2 1,7 22 12 WNW 1004,4 50
16.09.2019 10:00:00 10,4 1,5 22 12 W 1004,2 50
16.09.2019 09:00:00 10,3 1,9 25 14 W 1003,4 45
16.09.2019 08:00:00 8,8 1,5 18 10 W 1003,3 50
16.09.2019 07:00:00 8,5 1,4 25 14 W 1002,7 50
16.09.2019 06:00:00 8,7 1,6 18 10 W 1002,5 50
16.09.2019 05:00:00 9,8 1,7 14 8 W 1002,1 50
16.09.2019 04:00:00 10,4 2,5 22 12 W 1001,2 50
16.09.2019 03:00:00 10,9 3,0 18 10 W 1000,5 50
16.09.2019 02:00:00 11,4 3,7 25 14 W 999,8 50
16.09.2019 01:00:00 11,8 3,8 22 12 W 998,9 50
16.09.2019 00:00:00 11,9 4,1 22 12 W 998,0 50
15.09.2019 23:00:00 12,1 4,6 29 16 WSW 996,7 50
15.09.2019 22:00:00 12,3 5,2 25 14 WSW 996,5 50
15.09.2019 21:00:00 12,4 5,8 29 16 WSW 996,2 50
15.09.2019 20:00:00 12,5 6,5 22 12 SW 995,9 50
15.09.2019 19:00:00 13,7 6,1 25 14 SW 995,8 45
15.09.2019 18:00:00 14,3 5,9 29 16 SW 995,7 45
15.09.2019 17:00:00 14,8 5,0 32 18 SW 996,3 35
15.09.2019 16:00:00 15,0 4,7 32 18 SW 996,8 40
15.09.2019 15:00:00 15,2 5,1 32 18 SW 997,2 45
15.09.2019 14:00:00 14,9 4,0 32 18 WSW 997,5 45
15.09.2019 13:00:00 14,5 5,8 22 12 WSW 997,9 35
15.09.2019 12:00:00 14,1 5,7 32 18 WSW 998,2 45
15.09.2019 11:00:00 13,5 6,8 29 16 WSW 998,0 40
15.09.2019 10:00:00 12,7 7,6 36 19 WSW 997,7 35
15.09.2019 09:00:00 12,3 8,8 29 16 WSW 998,1 45
15.09.2019 08:00:00 12,1 10,5 29 16 WSW 998,0 45
15.09.2019 07:00:00 12,5 12,0 22 12 SW 998,5 29
15.09.2019 06:00:00 12,5 12,2 18 10 SSW 999,8 28
15.09.2019 05:00:00 12,4 12,1 22 12 SW 1001,0 30
15.09.2019 04:00:00 11,9 11,7 22 12 SSW 1002,0 17
15.09.2019 03:00:00 11,6 11,4 22 12 SSW 1004,3 11
15.09.2019 02:00:00 11,2 10,9 25 14 SSW 1005,7 7
15.09.2019 01:00:00 10,8 10,5 25 14 SSW 1007,7 11
15.09.2019 00:00:00 10,6 10,3 29 16 SSW 1009,5 9
14.09.2019 23:00:00 10,6 10,1 22 12 S 1011,5 13
14.09.2019 22:00:00 10,7 10,1 18 10 S 1013,5 4,9
14.09.2019 21:00:00 11,3 10,4 18 10 S 1015,4 17
14.09.2019 20:00:00 11,2 10,7 14 8 SSW 1017,1 13
14.09.2019 19:00:00 12,0 10,2 14 8 SW 1017,8 13
14.09.2019 18:00:00 13,2 9,4 18 10 SW 1018,7 50
14.09.2019 17:00:00 13,5 8,1 18 10 WSW 1019,7 50
14.09.2019 16:00:00 14,7 5,8 18 10 WSW 1020,6 50
14.09.2019 15:00:00 15,5 3,9 22 12 WSW 1020,9 50
14.09.2019 14:00:00 14,9 4,6 22 12 WSW 1021,8 45
14.09.2019 13:00:00 14,5 4,5 25 14 WSW 1022,4 45
14.09.2019 12:00:00 13,5 4,4 22 12 W 1022,9 40
14.09.2019 11:00:00 13,0 4,2 22 12 W 1022,9 45
14.09.2019 10:00:00 11,8 5,2 14 8 W 1023,3 50
14.09.2019 09:00:00 9,4 4,4 7 4 W 1023,5 50
14.09.2019 08:00:00 7,2 3,6 7 4 SW 1023,5 50
14.09.2019 07:00:00 7,8 3,1 7 4 WNW 1023,1 50
14.09.2019 06:00:00 7,8 2,9 11 6 WNW 1023,3 50
14.09.2019 05:00:00 8,1 3,2 14 8 W 1023,1 50
14.09.2019 04:00:00 8,7 2,7 14 8 W 1022,7 50
14.09.2019 03:00:00 9,3 2,6 14 8 W 1022,3 50
14.09.2019 02:00:00 9,3 3,3 14 8 W 1021,8 50
14.09.2019 01:00:00 10,2 3,0 14 8 W 1021,3 50
14.09.2019 00:00:00 10,4 3,9 11 6 W 1021,2 50
13.09.2019 23:00:00 9,9 4,5 14 8 WSW 1020,6 50
13.09.2019 22:00:00 10,6 4,1 14 8 WSW 1020,4 50
13.09.2019 21:00:00 10,8 3,6 11 6 WSW 1020,1 50
13.09.2019 20:00:00 12,4 3,1 14 8 W 1019,6 50
13.09.2019 19:00:00 13,9 4,7 14 8 W 1019,0 50
13.09.2019 18:00:00 15,6 4,6 22 12 W 1018,6 50
13.09.2019 17:00:00 16,1 4,2 18 10 W 1018,5 50
13.09.2019 16:00:00 15,6 3,4 18 10 W 1018,5 50
13.09.2019 15:00:00 16,4 4,4 22 12 W 1018,0 50
13.09.2019 14:00:00 16,1 4,2 22 12 W 1017,4 45
13.09.2019 13:00:00 15,2 5,7 22 12 WNW 1017,0 45
13.09.2019 12:00:00 14,2 5,0 22 12 WNW 1016,5 45
13.09.2019 11:00:00 13,4 5,8 25 14 WNW 1015,8 45
13.09.2019 10:00:00 12,6 6,6 22 12 WNW 1014,9 45
13.09.2019 09:00:00 11,8 7,1 22 12 W 1014,1 45
13.09.2019 08:00:00 10,7 7,9 11 6 W 1013,5 50
13.09.2019 07:00:00 9,7 8,1 14 8 W 1012,9 50
13.09.2019 06:00:00 10,0 8,9 11 6 WSW 1012,2 50
13.09.2019 05:00:00 10,5 9,3 7 4 W 1012,1 40
13.09.2019 04:00:00 11,7 9,8 18 10 WSW 1011,8 40
13.09.2019 03:00:00 12,3 10,0 11 6 SW 1011,9 40
13.09.2019 02:00:00 12,2 9,8 7 4 SW 1012,3 40
13.09.2019 01:00:00 12,4 9,9 11 6 SW 1012,6 40
13.09.2019 00:00:00 12,6 10,0 14 8 SW 1012,7 40
12.09.2019 23:00:00 13,0 10,5 14 8 SW 1012,9 28
12.09.2019 22:00:00 13,5 10,7 22 12 SW 1012,9 35
12.09.2019 21:00:00 13,9 10,5 22 12 SW 1013,1 28
12.09.2019 20:00:00 14,3 10,5 14 8 SSW 1013,2 27
12.09.2019 19:00:00 14,8 10,8 18 10 SW 1013,1 30
12.09.2019 18:00:00 15,4 10,6 25 14 SW 1013,4 30
12.09.2019 17:00:00 15,5 10,7 25 14 SW 1013,2 35
12.09.2019 16:00:00 16,0 9,2 25 14 SW 1013,2 35
12.09.2019 15:00:00 16,5 9,4 29 16 WSW 1013,1 40
12.09.2019 14:00:00 17,5 9,4 29 16 SW 1012,8 40
12.09.2019 13:00:00 17,5 9,9 25 14 WSW 1012,7 29
12.09.2019 12:00:00 16,7 10,8 25 14 WSW 1012,5 35
12.09.2019 11:00:00 15,6 10,6 25 14 WSW 1012,2 40

tt = Température de l'air
td = dewpoint
ff = Vitesse du vent
dd = Direction du vent
ppp = reduced air pressure
vv = visibility

stations d'obs. à proximité